Air Resources Laboratory banner image
Air Resources Laboratory web site National Oceanic and Atmospheric Administration (NOAA)

id roundup


Office: BOI

ASUS45 KBOI 171010
RWRID

IDAHO REGIONAL WEATHER ROUNDUP
NATIONAL WEATHER SERVICE BOISE ID
400 AM MDT WED AUG 17 2022

NOTE: "FAIR" INDICATES FEW OR NO CLOUDS BELOW 12000 FEET
WITH NO SIGNIFICANT WEATHER AND/OR OBSTRUCTIONS TO VISIBILITY

IDZ012-014-171100-
SOUTHWEST IDAHO


CITY           SKY/WX    TMP DP  RH WIND       PRES   REMARKS
BOISE          CLEAR     73  35  25 S5        29.99R
CALDWELL       CLEAR     66  51  58 SW3       29.97R
MOUNTAIN HOME  CLEAR     65  40  39 E3        29.97R
$$

IDZ016-017-171100-
SOUTHCENTRAL IDAHO


CITY           SKY/WX    TMP DP  RH WIND       PRES   REMARKS
BURLEY         CLEAR     56  44  64 CALM      30.08S
JEROME         CLEAR     66  44  45 SE3       30.08R
TWIN FALLS     CLEAR     64  35  34 CALM      30.09R
$$

IDZ019>023-171100-
SOUTHEAST IDAHO


CITY           SKY/WX    TMP DP  RH WIND       PRES   REMARKS
IDAHO FALLS    CLEAR     61  47  59 E5        30.16S
POCATELLO      CLEAR     56  44  64 NW10      30.13R
REXBURG        CLEAR     57  48  72 NE6       30.19R
$$

IDZ006-010-011-018-031-032-171100-
CENTRAL IDAHO MOUNTAINS


CITY           SKY/WX    TMP DP  RH WIND       PRES   REMARKS
MCCALL         CLEAR     58  37  45 CALM      30.19R
HAILEY         CLEAR     61  34  36 NW10      30.22S
STANLEY          N/A     42  32  67 CALM      30.34R
SALMON         CLEAR     54  41  61 CALM      30.19R
CHALLIS        CLEAR     55  36  48 NW3       30.22R
$$

IDZ002-004-006-007-026-171100-
NORTHERN IDAHO


CITY           SKY/WX    TMP DP  RH WIND       PRES   REMARKS
LEWISTON       CLEAR     71  37  28 CALM      29.98R
LOWELL           N/A     57  53  86 CALM      30.07R
COEUR D'ALENE  CLEAR     65  50  58 E6        30.07R
MULLAN PASS    CLEAR     66  23  19 CALM      30.29R
$$




Office: LKN ASUS65 KLKN 170009 RTPLKN Regional Temperature And Precipitation Table...Late Afternoon National Weather Service Elko NV 509 PM PDT Tue Aug 16 2022 ***Automated Airport Stations*** Values represent lows over the last 18 hours... Values reflect the previous 18 hours and precipitation over the last 24 hours...ending at 4 PM PST/5 PM PDT today. .BR LKN 0816 P DH16/TAIRZS/TAIRZI/PPDRZZ/SFDRZZ/SDIRZZ : :ID Station Elev / Max / Min / Pcpn / :.................................................................... : EKO : Elko ASOS 5074 : 93 / 51 / 0.00 / ELY : Ely ASOS 6262 : 86 / 48 / 0.00 / P68 : Eureka ASOS 5936 : 91 / 49 / 0.00 / TPH : Tonopah ASOS 5395 : 91 / 64 / 0.00 / ENV : Wendover AWOS 4236 : 97 / 67 / 0.00 / WMC : Winnemucca ASOS 4314 : 100 / 54 / T / .END ***Manual synoptic reporting stations in north and central Nevada*** Values reflect the previous 24 hours ending at 4 PM PST/5 PM PDT *Snow stations may only report during periods of snowfall* .BR LKN 0816 P DH16/TAIRZX/TAIRZN/PPDRZZ/SFDRZZ/SDIRZZ : Snow Snow :ID Station Elev Max / Min / Pcpn / Fall / Dpth :.................................................................... : ZLKN2 : Elko NWS Office 5235 : 95 / 57 / 0.00 / 0.0 / 0 ZELN2 : Ely Snow 6487 : M / M / 0.00 / 0.0 / 0 ZWIN2 : Winnemucca Snow 4355 : M / M / 0.00 / 0.0 / 0 .END ***Cooperative stations in north and central Nevada*** Values reflect the previous 24 hours Report time as indicated .BR LKN 0816 P DH16/TAIRZX/TAIRZN/PPDRZZ/SFDRZZ/SDIRZZ : Snow Snow :ID Station Elev Time / Max / Min / Pcpn / Fall / Dpth :.................................................................... : ASTN2 : Austin #2 6780 5 PM: M / M / M / M / M B23 : Battle MT. 4SE 4505 5 PM: M / M / M / M / M BOWN2 : Beowawe 4700 4 PM: M / M / M / M / M PIVN2 : Pine Valley 5166 6 PM: M / M / M / M / M AWH : Wild Horse Res. 6239 6 PM: M / M / M / M / M .END M = Missing data T = Trace amounts ASOS = Automated Surface Observing System AWOS = Automated Weather Observation System NWS = National Weather Service These data are preliminary and have not undergone final quality control (QC) by NCEI. Therefore, these data are subject to revision. Final and certified data can be accessed at the National Centers For Environmental Information (NCEI) - www.ncei.noaa.gov $$